Weather History for KSFY - April, 2014

Change the Weather History Date:

Sunday, April 13, 2014

  Actual Average (KDBQ) Record (KDBQ)
Temperature  
Mean Temperature 57 °F 47 °F  
Max Temperature 66 °F 58 °F 83 °F (1887)
Min Temperature 46 °F 37 °F 20 °F (1997)
Degree Days  
Heating Degree Days 8 18  
Month to date heating degree days 263  
Since 1 July heating degree days 6574  
Cooling Degree Days 0 0  
Month to date cooling degree days 0  
Year to date cooling degree days 0  
Growing Degree Days 7 (Base 50)    
Moisture  
Dew Point 54 °F    
Average Humidity 87    
Maximum Humidity 96    
Minimum Humidity 63    
Precipitation  
Precipitation 1.15 in 0.12 in 2.77 in (2014)
Month to date precipitation 1.46  
Year to date precipitation 6.48  
Snow  
Snow 0.00 in 0.10 in - ()
Month to date snowfall 1.3  
Since 1 July snowfall 41.2  
Snow Depth -    
Sea Level Pressure  
Sea Level Pressure 29.60 in    
Wind  
Wind Speed 10 mph (East)    
Max Wind Speed 20 mph    
Max Gust Speed 28 mph    
Visibility 7 miles    
Events Rain , Thunderstorm    
T = Trace of Precipitation, MM = Missing Value Source: NWS Daily Summary

Daily Weather History Graph

Daily Weather History Graph

Search for Another Location

Airport or City:

Trip Planner

Search our weather history database for the weather conditions in past years. The results will help you decide how hot, cold, wet, or windy it might be!

Date:

Astronomy

Apr. 13, 2014 Rise Set
Actual Time 6:23 AM CDT 7:39 PM CDT
Civil Twilight 5:54 AM CDT 8:08 PM CDT
Nautical Twilight 5:19 AM CDT 8:43 PM CDT
Astronomical Twilight 4:43 AM CDT 9:19 PM CDT
Moon 6:16 PM CDT (4/13) 5:23 AM CDT (4/13)
Length of Visible Light 14h 14m
Length of Day
13h 16m
Waxing Gibbous, 97% of the Moon is Illuminated
Apr 13
Waxing Gibbous
Apr 15
Full
Apr 22
Last Quarter
Apr 29
New
May 6
First Quarter

Hourly Weather History & Observations

Time (CDT) Temp. Dew Point Humidity Pressure Visibility Wind Dir Wind Speed Gust Speed Precip Events Conditions
12:15 AM 67.1 °F 54.3 °F 63% 29.60 in 10.0 mi South 19.6 mph - N/A   Clear
12:35 AM 67.5 °F 54.5 °F 63% 29.59 in 10.0 mi SSE 16.1 mph 20.7 mph N/A   Mostly Cloudy
12:55 AM 66.7 °F 54.5 °F 65% 29.60 in 10.0 mi South 16.1 mph 23.0 mph N/A   Mostly Cloudy
1:15 AM 66.6 °F 54.5 °F 65% 29.59 in 10.0 mi South 18.4 mph - N/A   Mostly Cloudy
1:35 AM 65.8 °F 54.5 °F 67% 29.64 in 10.0 mi West 9.2 mph 19.6 mph N/A Thunderstorm Overcast
1:55 AM 61.0 °F 53.4 °F 76% 29.70 in 5.0 mi WNW 11.5 mph 21.9 mph 0.05 in Rain , Thunderstorm Thunderstorms and Rain
2:15 AM 57.0 °F 52.9 °F 86% 29.69 in 7.0 mi NW 10.4 mph - N/A Thunderstorm Scattered Clouds
2:35 AM 54.9 °F 51.6 °F 89% 29.66 in 7.0 mi North 10.4 mph 17.3 mph N/A Rain Light Rain
2:55 AM 53.6 °F 50.7 °F 90% 29.66 in 7.0 mi North 10.4 mph 16.1 mph N/A   Scattered Clouds
3:15 AM 53.6 °F 50.4 °F 89% 29.69 in 7.0 mi Calm Calm - N/A   Clear
3:35 AM 53.6 °F 50.5 °F 89% 29.70 in 7.0 mi Calm Calm - N/A   Clear
3:55 AM 52.7 °F 50.2 °F 91% 29.67 in 7.0 mi ENE 4.6 mph - N/A   Clear
4:15 AM 53.2 °F 50.9 °F 92% 29.63 in 7.0 mi ESE 6.9 mph - N/A   Scattered Clouds
4:35 AM 54.0 °F 51.1 °F 90% 29.63 in 10.0 mi ESE 6.9 mph - N/A   Clear
4:55 AM 54.7 °F 51.4 °F 89% 29.63 in 10.0 mi East 9.2 mph - N/A   Clear
5:15 AM 55.0 °F 51.1 °F 86% 29.67 in 10.0 mi South 3.5 mph - N/A   Clear
5:35 AM 54.3 °F 51.1 °F 89% 29.68 in 10.0 mi South 6.9 mph - N/A   Clear
5:55 AM 54.1 °F 51.1 °F 89% 29.72 in 10.0 mi SSW 5.8 mph - N/A   Scattered Clouds
6:15 AM 54.7 °F 51.1 °F 88% 29.73 in 10.0 mi South 4.6 mph - N/A   Overcast
6:35 AM 54.1 °F 50.9 °F 89% 29.74 in 7.0 mi Calm Calm - N/A   Mostly Cloudy
6:55 AM 53.2 °F 50.9 °F 92% 29.73 in 5.0 mi NNE 5.8 mph - N/A Rain Light Rain
7:15 AM 53.8 °F 51.4 °F 92% 29.72 in 5.0 mi NNE 5.8 mph - N/A   Light Drizzle
7:35 AM 54.1 °F 51.8 °F 92% 29.71 in 7.0 mi ENE 6.9 mph - N/A Rain Light Rain
7:55 AM 55.0 °F 52.3 °F 91% 29.72 in 7.0 mi South 4.6 mph - N/A   Clear
8:15 AM 55.9 °F 52.5 °F 88% 29.71 in 7.0 mi Calm Calm - N/A   Clear
8:35 AM 58.6 °F 54.0 °F 84% 29.70 in 10.0 mi ESE 4.6 mph - N/A   Clear
8:55 AM 61.2 °F 54.0 °F 77% 29.68 in 10.0 mi ESE 6.9 mph - N/A   Clear
9:15 AM 61.2 °F 53.1 °F 75% 29.70 in 10.0 mi SE 10.4 mph - N/A   Mostly Cloudy
9:35 AM 61.7 °F 53.1 °F 73% 29.69 in 10.0 mi NE 4.6 mph - N/A   Mostly Cloudy
9:55 AM 60.8 °F 53.2 °F 76% 29.68 in 10.0 mi ENE 6.9 mph - N/A   Scattered Clouds
10:15 AM 60.3 °F 53.8 °F 79% 29.70 in 10.0 mi East 6.9 mph - N/A   Clear
10:35 AM 60.3 °F 54.0 °F 80% 29.72 in 10.0 mi ENE 5.8 mph - N/A   Scattered Clouds
10:55 AM 60.8 °F 53.8 °F 78% 29.74 in 10.0 mi Calm Calm - N/A Rain Light Rain
11:15 AM 60.8 °F 54.5 °F 80% 29.73 in 10.0 mi ENE 3.5 mph - N/A Rain Light Rain
11:35 AM 60.8 °F 55.2 °F 82% 29.72 in 10.0 mi East 4.6 mph - 0.01 in Rain Light Rain
11:55 AM 61.5 °F 55.9 °F 82% 29.70 in 10.0 mi ENE 5.8 mph - 0.01 in Rain Light Rain
12:15 PM 62.6 °F 56.1 °F 79% 29.68 in 10.0 mi East 5.8 mph - N/A   Scattered Clouds
12:35 PM 62.8 °F 56.5 °F 80% 29.68 in 10.0 mi East 6.9 mph - N/A   Light Drizzle
12:55 PM 62.2 °F 56.3 °F 81% 29.68 in 10.0 mi SE 6.9 mph - N/A Rain Light Rain
1:15 PM 61.5 °F 57.6 °F 87% 29.68 in 5.0 mi SE 8.1 mph - 0.02 in Rain Rain
1:35 PM 61.0 °F 58.1 °F 90% 29.67 in 3.0 mi SE 5.8 mph - 0.10 in Rain Rain
1:55 PM 61.0 °F 58.6 °F 92% 29.66 in 5.0 mi East 5.8 mph - 0.12 in Rain Light Rain
2:15 PM 61.0 °F 59.0 °F 93% 29.64 in 5.0 mi East 4.6 mph - 0.01 in Rain Light Rain
2:35 PM 61.2 °F 59.0 °F 93% 29.61 in 5.0 mi NE 8.1 mph - 0.02 in Rain Light Rain
2:55 PM 61.2 °F 59.0 °F 93% 29.61 in 5.0 mi ENE 9.2 mph - 0.03 in Rain Light Rain
3:15 PM 60.8 °F 58.6 °F 93% 29.61 in 3.0 mi ENE 5.8 mph - 0.06 in Rain Heavy Rain
3:35 PM 60.3 °F 58.3 °F 93% 29.59 in 3.0 mi ENE 9.2 mph - 0.15 in Rain Rain
3:55 PM 58.8 °F 56.7 °F 93% 29.57 in 2.5 mi ENE 11.5 mph - 0.18 in Rain Light Rain
4:15 PM 57.7 °F 55.9 °F 94% 29.56 in 2.5 mi East 9.2 mph - 0.04 in Rain Heavy Rain
4:35 PM 57.4 °F 55.6 °F 94% 29.56 in 3.0 mi ENE 11.5 mph - 0.12 in Rain Rain
4:55 PM 57.7 °F 56.3 °F 95% 29.52 in 1.8 mi ENE 11.5 mph - 0.22 in Rain Rain
5:15 PM 57.7 °F 56.3 °F 95% 29.50 in 3.0 mi ENE 11.5 mph - 0.03 in Rain Rain
5:35 PM 58.1 °F 56.5 °F 94% 29.49 in 3.0 mi ENE 6.9 mph - 0.08 in Rain Rain
5:55 PM 60.1 °F 58.8 °F 96% 29.48 in 3.0 mi ESE 8.1 mph - 0.11 in Rain Light Rain
6:15 PM 61.2 °F 59.5 °F 94% 29.46 in 5.0 mi East 6.9 mph - 0.01 in Rain Light Rain
6:35 PM 61.2 °F 59.2 °F 93% 29.46 in 7.0 mi East 9.2 mph - 0.01 in   Light Drizzle
6:55 PM 61.7 °F 59.4 °F 92% 29.45 in 4.0 mi SE 8.1 mph - 0.04 in Rain Light Rain
7:15 PM 61.7 °F 59.5 °F 93% 29.44 in 7.0 mi SSE 6.9 mph - N/A Rain Light Rain
7:35 PM 62.2 °F 60.1 °F 93% 29.43 in 5.0 mi SSE 10.4 mph - 0.01 in Rain Light Rain
7:55 PM 62.6 °F 60.3 °F 92% 29.43 in 7.0 mi South 11.5 mph - 0.01 in   Drizzle
8:15 PM 62.6 °F 60.3 °F 92% 29.42 in 7.0 mi South 11.5 mph - N/A   Overcast
8:35 PM 63.1 °F 60.3 °F 90% 29.42 in 10.0 mi South 13.8 mph - N/A   Overcast
8:55 PM 63.5 °F 60.1 °F 89% 29.43 in 10.0 mi South 11.5 mph 15.0 mph N/A Rain Light Rain
9:15 PM 62.4 °F 58.8 °F 88% 29.44 in 7.0 mi SW 9.2 mph 19.6 mph 0.02 in Rain Rain
9:35 PM 56.8 °F 54.0 °F 90% 29.43 in 7.0 mi NW 15.0 mph 19.6 mph 0.03 in Rain Light Rain
9:55 PM 52.0 °F 49.6 °F 92% 29.43 in 3.0 mi North 13.8 mph - 0.15 in Rain Heavy Rain
10:15 PM 49.5 °F 47.5 °F 93% 29.43 in 4.0 mi NW 12.7 mph - 0.13 in Rain Heavy Rain
10:35 PM 48.4 °F 46.6 °F 93% 29.42 in 10.0 mi North 12.7 mph - 0.16 in Rain Rain
10:55 PM 47.8 °F 45.9 °F 93% 29.42 in 10.0 mi North 16.1 mph 20.7 mph 0.18 in Rain Light Rain
11:35 PM 47.3 °F 45.1 °F 92% 29.42 in 10.0 mi North 16.1 mph - 0.04 in Rain Light Rain
11:55 PM 46.9 °F 44.6 °F 92% 29.40 in 7.0 mi NNE 17.3 mph 27.6 mph 0.05 in Rain Light Rain